Location: Newark
(48.1500°N, 13.1167°E)
Time: 10:42:22
(UTC+00:00)

VELOX 1 - Visible Passes

Search period start: 01 December 2021 00:00
Search period end: 11 December 2021 00:00
Orbit: 627 x 641 km, 98.3° (Epoch: 30 November)

Date Brightness Start Highest point End Pass type
(mag) Time Alt. Az. Time Alt. Az. Time Alt. Az.
01 Dec ? 16:12:12 10° N 16:16:37 70° WNW 16:20:59 10° SSW visible
01 Dec ? 17:51:30 10° NW 17:52:08 10° NW 17:52:46 10° WNW visible
02 Dec ? 16:34:01 10° N 16:38:13 43° WNW 16:42:23 10° SW visible
03 Dec ? 16:55:59 10° N 16:59:45 28° WNW 17:03:31 10° WSW visible
04 Dec ? 17:18:08 10° NNW 17:21:14 19° WNW 17:24:18 10° WSW visible
05 Dec ? 16:02:31 10° NNE 16:06:59 88° WNW 16:11:23 10° SSW visible
05 Dec ? 17:40:44 10° NNW 17:42:38 13° NW 17:44:32 10° W visible
06 Dec ? 16:24:17 10° N 16:28:37 54° WNW 16:32:54 10° SSW visible
07 Dec ? 16:46:10 10° N 16:50:11 34° WNW 16:54:09 10° SW visible
08 Dec ? 17:08:13 10° N 17:11:41 23° WNW 17:15:07 10° WSW visible
09 Dec ? 15:52:52 10° NNE 15:57:18 74° ESE 16:01:41 10° S visible
09 Dec ? 17:30:33 10° NNW 17:33:06 15° WNW 17:35:40 10° W visible
10 Dec ? 16:14:33 10° N 16:18:58 69° WNW 16:23:19 10° SSW visible
10 Dec ? 17:54:10 10° NW 17:54:29 10° NW 17:54:47 10° WNW visible
